[[{"header":{"parameterUnit":"m.s-1","parameterCategory":2,"la1":30.2992,"la2":30.254,"lo1":-89.0895,"lo2":-89.0443,"dy":0.0025,"dx":0.0025,"nx":19,"ny":19,"refTime":"2026-04-30T21:00:00:Z","depth":"0","parameterNumber":2,"parameterNumberName":"U-component_of_CURRENTS"},"data":[0,0,0,-0.1474,-0.1477,-0.1723,-0.1725,-0.213,-0.2133,0,0,0,0,0,0,0,0,0,0,0,-0.1383,-0.1383,-0.1474,-0.1477,-0.1723,-0.1725,-0.2129,-0.2133,0,0,0,0,0,0,0,0,0,0,0,-0.1383,-0.1383,-0.1384,-0.1478,-0.1723,-0.1725,-0.2128,-0.1935,0,0,0,0,0,0,0,0,0,0,-0.1691,-0.1589,-0.1383,-0.1384,-0.1479,-0.1722,-0.1725,-0.1925,-0.1947,-0.2025,0,-0.2017,0,-0.2062,-0.2156,-0.2158,0,0,0,-0.1538,-0.157,-0.1609,-0.1384,-0.148,-0.1721,-0.1629,-0.1937,-0.1962,-0.2054,-0.2023,-0.2038,-0.2069,-0.2159,-0.2161,-0.2422,-0.2423,0,0,-0.1525,-0.1475,-0.1591,-0.1622,-0.1487,-0.1621,-0.1636,-0.1952,-0.1971,-0.2024,-0.2047,-0.2076,-0.2161,-0.2164,-0.2422,-0.2422,0,0,0,-0.1445,-0.1465,-0.1497,-0.1606,-0.1631,-0.1626,-0.1644,-0.1959,-0.1959,-0.2052,-0.2081,-0.2163,-0.2167,-0.2422,-0.2422,-0.2363,0,0,0,-0.1439,-0.1414,-0.1489,-0.1469,-0.1623,-0.1789,-0.1643,-0.1937,-0.1974,-0.2079,-0.2163,-0.2171,-0.2422,-0.2422,-0.2364,-0.23,0,0,0,-0.1382,-0.141,-0.1412,-0.1464,-0.1541,-0.1784,-0.1808,-0.1947,-0.199,-0.2158,-0.2172,-0.2421,-0.2422,-0.2365,-0.2303,-0.226,0,0,0,-0.1362,-0.1397,-0.1411,-0.1478,-0.1537,-0.1715,-0.1806,-0.1973,-0.2111,-0.2165,-0.2422,-0.2422,-0.2365,-0.2305,-0.2262,-0.2035,-0.2006,0,0,-0.1406,-0.1401,-0.1446,-0.1465,-0.1594,-0.1689,-0.1865,-0.2063,-0.2145,-0.2335,-0.2341,-0.2363,-0.2303,-0.226,-0.2067,-0.2036,0,0,0,-0.1464,-0.1484,-0.1531,-0.1601,-0.1714,-0.1823,-0.2013,-0.2082,-0.224,-0.2215,-0.2391,-0.2355,-0.2329,-0.2199,-0.2176,-0.1892,-0.2425,-0.2425,-0.2425,-0.144,-0.1513,-0.1598,-0.1696,-0.1789,-0.195,-0.2041,-0.2166,-0.227,-0.2301,-0.2329,-0.2281,-0.2144,-0.2123,-0.1835,-0.2375,-0.2375,-0.2375,-0.2375,-0.1494,-0.1529,-0.1619,-0.1725,-0.1808,-0.1934,-0.209,-0.2147,-0.2243,-0.231,-0.2289,-0.217,-0.2092,-0.1795,-0.2372,-0.2372,-0.2373,-0.2373,-0.2373,-0.146,-0.1484,-0.1559,-0.167,-0.1751,-0.1879,-0.1909,-0.2043,-0.2151,-0.2153,-0.2015,-0.2014,-0.173,-0.2147,-0.2146,-0.2146,-0.2145,-0.2145,-0.2145,-0.1361,-0.1448,-0.1476,-0.1606,-0.1621,-0.1674,-0.1797,-0.1826,-0.1853,-0.1904,-0.1903,-0.1654,-0.2211,-0.2193,-0.2138,-0.2139,-0.214,-0.2141,-0.2141,-0.1253,-0.13,-0.1324,-0.1347,-0.1409,-0.134,-0.1506,-0.1465,-0.1527,-0.148,-0.1262,-0.178,-0.1766,-0.1784,-0.1757,-0.1592,-0.1592,-0.1592,-0.1592,-0.1117,-0.1172,-0.1111,-0.1096,-0.1112,-0.1159,-0.0957,-0.0966,-0.0917,-0.0805,-0.0879,-0.0841,-0.0876,-0.0812,-0.0851,-0.0807,-0.0405,-0.0403,-0.0402,-0.0965,-0.099,-0.0857,-0.092,-0.0938,-0.0895,-0.0616,-0.0375,-0.0288,-0.0334,-0.0522,-0.0573,-0.0511,-0.0589,-0.0496,-0.0574,-0.0508,0,0]},{"header":{"parameterUnit":"m.s-1","parameterCategory":2,"la1":30.2992,"la2":30.254,"lo1":-89.0895,"lo2":-89.0443,"dy":0.0025,"dx":0.0025,"nx":19,"ny":19,"refTime":"2026-04-30T21:00:00:Z","depth":"0","parameterNumber":3,"parameterNumberName":"V-component_of_CURRENTS"},"data":[0,0,0,-0.0854,-0.0854,-0.0838,-0.0838,-0.0768,-0.0767,0,0,0,0,0,0,0,0,0,0,0,-0.085,-0.085,-0.0854,-0.0854,-0.0838,-0.0838,-0.0768,-0.0767,0,0,0,0,0,0,0,0,0,0,0,-0.085,-0.085,-0.085,-0.0854,-0.0838,-0.0838,-0.0768,-0.079,0,0,0,0,0,0,0,0,0,0,-0.0811,-0.081,-0.085,-0.085,-0.0854,-0.0838,-0.0838,-0.0792,-0.0789,-0.0764,0,-0.0761,0,-0.0769,-0.0762,-0.0762,0,0,0,-0.0845,-0.0812,-0.0819,-0.0849,-0.0854,-0.0838,-0.0843,-0.0791,-0.0787,-0.076,-0.076,-0.0758,-0.0768,-0.0762,-0.0761,-0.0761,-0.0761,0,0,-0.0846,-0.0835,-0.0821,-0.0817,-0.0848,-0.0843,-0.0842,-0.0789,-0.0777,-0.076,-0.0757,-0.0767,-0.0761,-0.0761,-0.076,-0.0761,0,0,0,-0.0855,-0.0835,-0.0844,-0.0819,-0.0824,-0.0843,-0.0842,-0.0779,-0.0785,-0.0756,-0.0766,-0.0761,-0.076,-0.076,-0.0761,-0.0772,0,0,0,-0.0855,-0.0842,-0.0844,-0.0836,-0.0825,-0.0807,-0.0833,-0.0788,-0.0783,-0.0766,-0.0761,-0.0759,-0.0759,-0.076,-0.077,-0.0769,0,0,0,-0.0851,-0.0841,-0.0841,-0.0835,-0.0835,-0.0808,-0.081,-0.0787,-0.0789,-0.0762,-0.0759,-0.0759,-0.076,-0.0768,-0.0767,-0.0787,0,0,0,-0.0838,-0.0814,-0.0841,-0.082,-0.0836,-0.0836,-0.0811,-0.0804,-0.0785,-0.076,-0.0759,-0.076,-0.0768,-0.0766,-0.0785,-0.0761,-0.0766,0,0,-0.08,-0.0809,-0.08,-0.0824,-0.0821,-0.0838,-0.0835,-0.0804,-0.0798,-0.077,-0.077,-0.077,-0.0767,-0.0786,-0.0838,-0.0839,0,0,0,-0.0784,-0.0786,-0.0786,-0.0794,-0.0804,-0.0821,-0.0814,-0.0822,-0.0819,-0.0795,-0.0794,-0.0792,-0.0804,-0.0788,-0.079,-0.07,-0.0767,-0.0766,-0.0766,-0.0712,-0.0743,-0.0747,-0.0787,-0.0789,-0.0814,-0.0826,-0.0842,-0.0826,-0.0849,-0.0819,-0.0865,-0.085,-0.085,-0.0759,-0.0843,-0.0843,-0.0843,-0.0843,-0.0702,-0.0723,-0.0757,-0.0781,-0.0804,-0.0813,-0.0838,-0.0848,-0.087,-0.0862,-0.0872,-0.0822,-0.0853,-0.0755,-0.0844,-0.0844,-0.0844,-0.0844,-0.0844,-0.0696,-0.0713,-0.0744,-0.0795,-0.0816,-0.0833,-0.0859,-0.0873,-0.0881,-0.0891,-0.0879,-0.0878,-0.0776,-0.09,-0.09,-0.0901,-0.0901,-0.0901,-0.0901,-0.0682,-0.0716,-0.0754,-0.0815,-0.0837,-0.0863,-0.0884,-0.0893,-0.0896,-0.0893,-0.0893,-0.0785,-0.0883,-0.0861,-0.0902,-0.0902,-0.0902,-0.0902,-0.0902,-0.0674,-0.0701,-0.075,-0.0786,-0.0851,-0.0837,-0.0888,-0.088,-0.0909,-0.0903,-0.0784,-0.0896,-0.0889,-0.0888,-0.0867,-0.0907,-0.0907,-0.0907,-0.0907,-0.0654,-0.068,-0.0714,-0.0757,-0.0806,-0.0814,-0.0747,-0.0742,-0.0744,-0.0718,-0.0736,-0.0701,-0.0705,-0.0684,-0.0687,-0.0662,-0.0649,-0.0649,-0.0648,-0.0636,-0.0654,-0.0648,-0.0707,-0.0764,-0.0741,-0.0594,-0.0433,-0.0504,-0.0629,-0.0616,-0.0627,-0.0566,-0.0579,-0.0541,-0.0552,-0.0509,0,0]}],[{"header":{"parameterUnit":"m.s-1","parameterCategory":2,"la1":30.2992,"la2":30.254,"lo1":-89.0895,"lo2":-89.0443,"dy":0.0025,"dx":0.0025,"nx":19,"ny":19,"refTime":"2026-04-30T21:00:00:Z","depth":"2","parameterNumber":2,"parameterNumberName":"U-component_of_CURRENTS"},"data":[0,0,0,-0.0421,-0.0422,-0.0526,-0.0527,-0.0592,-0.0592,0,0,0,0,0,0,0,0,0,0,0,-0.0385,-0.0385,-0.0421,-0.0422,-0.0526,-0.0527,-0.0592,-0.0592,0,0,0,0,0,0,0,0,0,0,0,-0.0384,-0.0385,-0.0385,-0.0423,-0.0526,-0.0527,-0.0591,-0.0535,0,0,0,0,0,0,0,0,0,0,-0.0445,-0.0457,-0.0385,-0.0385,-0.0423,-0.0526,-0.0527,-0.0533,-0.0538,-0.0518,0,-0.0523,0,-0.0548,-0.0593,-0.0593,0,0,0,-0.0443,-0.0453,-0.0433,-0.0385,-0.0424,-0.0526,-0.0485,-0.0537,-0.0543,-0.0525,-0.0525,-0.0528,-0.0549,-0.0593,-0.0593,-0.061,-0.061,0,0,-0.0437,-0.0452,-0.0429,-0.0436,-0.0434,-0.0482,-0.0488,-0.0541,-0.0567,-0.0525,-0.053,-0.055,-0.0593,-0.0593,-0.061,-0.061,0,0,0,-0.0407,-0.0449,-0.0431,-0.0433,-0.0451,-0.0484,-0.0492,-0.0566,-0.0545,-0.0531,-0.0551,-0.0593,-0.0593,-0.061,-0.061,-0.0666,0,0,0,-0.0404,-0.0428,-0.0428,-0.0445,-0.045,-0.053,-0.0515,-0.0542,-0.0549,-0.055,-0.0593,-0.0593,-0.0609,-0.061,-0.0664,-0.0677,0,0,0,-0.0383,-0.0429,-0.0424,-0.0444,-0.0475,-0.0529,-0.0517,-0.0545,-0.056,-0.0593,-0.0593,-0.0609,-0.061,-0.0663,-0.0674,-0.0715,0,0,0,-0.0417,-0.0472,-0.0425,-0.0503,-0.0473,-0.0526,-0.0517,-0.0584,-0.0618,-0.0593,-0.0609,-0.061,-0.0662,-0.0673,-0.0713,-0.0513,-0.0506,0,0,-0.0509,-0.0484,-0.0528,-0.0488,-0.057,-0.0514,-0.0591,-0.0629,-0.0607,-0.059,-0.0592,-0.0665,-0.0674,-0.0715,-0.0526,-0.0518,0,0,0,-0.0573,-0.0587,-0.0616,-0.0641,-0.0648,-0.0665,-0.0665,-0.0638,-0.0649,-0.0623,-0.0653,-0.0657,-0.0681,-0.0556,-0.055,-0.0611,-0.0611,-0.0611,-0.0611,-0.0674,-0.0669,-0.0728,-0.0722,-0.0751,-0.0751,-0.0745,-0.0691,-0.0682,-0.0682,-0.0695,-0.075,-0.0616,-0.0609,-0.0691,-0.0691,-0.0692,-0.0692,-0.0692,-0.075,-0.0754,-0.0749,-0.08,-0.079,-0.0813,-0.0786,-0.0773,-0.0744,-0.072,-0.0742,-0.061,-0.0606,-0.0696,-0.0695,-0.0695,-0.0694,-0.0694,-0.0694,-0.0765,-0.0762,-0.0779,-0.0794,-0.0808,-0.0831,-0.0776,-0.0784,-0.0799,-0.0802,-0.0692,-0.0688,-0.0792,-0.0849,-0.0849,-0.085,-0.085,-0.085,-0.085,-0.0756,-0.0769,-0.0778,-0.0792,-0.0776,-0.077,-0.0768,-0.0724,-0.0725,-0.0723,-0.0722,-0.0803,-0.0798,-0.08,-0.0854,-0.0853,-0.0853,-0.0852,-0.0852,-0.074,-0.0761,-0.0742,-0.0732,-0.0696,-0.0607,-0.0633,-0.0533,-0.0552,-0.0521,-0.0659,-0.0662,-0.0624,-0.0624,-0.0621,-0.0626,-0.0626,-0.0626,-0.0626,-0.0707,-0.0732,-0.0671,-0.0634,-0.0578,-0.053,-0.0337,-0.0228,-0.029,-0.0335,-0.0348,-0.0254,-0.0268,-0.0206,-0.0217,-0.0204,-0.0101,-0.01,-0.0099,-0.0652,-0.0643,-0.0565,-0.0566,-0.0514,-0.0405,-0.0168,0.007,0.0077,-0.0084,-0.0312,-0.058,-0.0472,-0.0483,-0.0411,-0.0418,-0.0407,0,0]},{"header":{"parameterUnit":"m.s-1","parameterCategory":2,"la1":30.2992,"la2":30.254,"lo1":-89.0895,"lo2":-89.0443,"dy":0.0025,"dx":0.0025,"nx":19,"ny":19,"refTime":"2026-04-30T21:00:00:Z","depth":"2","parameterNumber":3,"parameterNumberName":"V-component_of_CURRENTS"},"data":[0,0,0,-0.0355,-0.0357,-0.0413,-0.0413,-0.0285,-0.0284,0,0,0,0,0,0,0,0,0,0,0,-0.0322,-0.0322,-0.0355,-0.0357,-0.0413,-0.0413,-0.0286,-0.0284,0,0,0,0,0,0,0,0,0,0,0,-0.0321,-0.0322,-0.0323,-0.0357,-0.0413,-0.0413,-0.0286,-0.0288,0,0,0,0,0,0,0,0,0,0,-0.0256,-0.0269,-0.0322,-0.0323,-0.0358,-0.0413,-0.0413,-0.029,-0.0288,-0.0209,0,-0.0229,0,-0.0263,-0.0273,-0.0272,0,0,0,-0.0337,-0.0271,-0.0285,-0.0323,-0.0359,-0.0413,-0.0382,-0.029,-0.0287,-0.0205,-0.0228,-0.0225,-0.0261,-0.0271,-0.0271,-0.0157,-0.0157,0,0,-0.0333,-0.0325,-0.0288,-0.0284,-0.0382,-0.038,-0.0384,-0.0291,-0.0287,-0.0227,-0.0223,-0.0259,-0.027,-0.0269,-0.0157,-0.0157,0,0,0,-0.0338,-0.0322,-0.0342,-0.0287,-0.0319,-0.0383,-0.0387,-0.0291,-0.0298,-0.0222,-0.0258,-0.0269,-0.0267,-0.0157,-0.0157,-0.0169,0,0,0,-0.0335,-0.0327,-0.0341,-0.0335,-0.0323,-0.0336,-0.0389,-0.0304,-0.0296,-0.0258,-0.0269,-0.0266,-0.0157,-0.0157,-0.0169,-0.0178,0,0,0,-0.0317,-0.0326,-0.0336,-0.0335,-0.0371,-0.034,-0.0342,-0.0304,-0.0317,-0.0272,-0.0265,-0.0157,-0.0157,-0.0169,-0.0177,-0.0164,0,0,0,-0.03,-0.0319,-0.0335,-0.0354,-0.0371,-0.0371,-0.0343,-0.0336,-0.0302,-0.0268,-0.0157,-0.0157,-0.0168,-0.0177,-0.0164,-0.0147,-0.0146,0,0,-0.0313,-0.032,-0.0328,-0.0345,-0.0359,-0.0362,-0.0342,-0.0296,-0.0271,-0.0169,-0.0168,-0.0169,-0.0177,-0.0164,-0.0148,-0.0148,0,0,0,-0.0324,-0.0337,-0.0338,-0.0356,-0.0353,-0.0344,-0.0317,-0.0283,-0.0231,-0.0258,-0.0166,-0.0171,-0.0162,-0.0151,-0.0151,-0.0157,-0.0157,-0.0157,-0.0157,-0.0341,-0.0342,-0.0354,-0.0355,-0.0343,-0.0321,-0.0282,-0.0231,-0.021,-0.0198,-0.0179,-0.0175,-0.0164,-0.0164,-0.0174,-0.0174,-0.0174,-0.0174,-0.0174,-0.0372,-0.0385,-0.037,-0.0385,-0.0357,-0.0334,-0.0246,-0.0228,-0.016,-0.0169,-0.0159,-0.0163,-0.0164,-0.0175,-0.0175,-0.0175,-0.0175,-0.0175,-0.0175,-0.0396,-0.0401,-0.0408,-0.0407,-0.0388,-0.0351,-0.0274,-0.0219,-0.0185,-0.0165,-0.0168,-0.0167,-0.0178,-0.0185,-0.0185,-0.0185,-0.0185,-0.0185,-0.0185,-0.0423,-0.0424,-0.0435,-0.0427,-0.0419,-0.0375,-0.0292,-0.0226,-0.019,-0.018,-0.018,-0.0179,-0.0178,-0.0179,-0.0185,-0.0185,-0.0185,-0.0185,-0.0185,-0.046,-0.0452,-0.0461,-0.046,-0.0427,-0.035,-0.028,-0.0181,-0.0148,-0.0131,-0.0162,-0.0163,-0.0154,-0.0154,-0.0154,-0.0153,-0.0153,-0.0153,-0.0153,-0.0479,-0.0478,-0.0481,-0.0473,-0.0424,-0.0344,-0.0194,-0.0071,-0.0058,-0.0058,-0.0062,-0.0053,-0.0057,-0.0042,-0.0045,-0.0042,-0.0012,-0.0012,-0.0011,-0.0496,-0.0494,-0.0494,-0.0486,-0.0436,-0.032,-0.0125,0.0154,0.0201,-0.0003,-0.0009,-0.0149,-0.0148,-0.015,-0.0136,-0.0137,-0.0136,0,0]}],[{"header":{"parameterUnit":"m.s-1","parameterCategory":2,"la1":30.2992,"la2":30.254,"lo1":-89.0895,"lo2":-89.0443,"dy":0.0025,"dx":0.0025,"nx":19,"ny":19,"refTime":"2026-04-30T21:00:00:Z","depth":"4","parameterNumber":2,"parameterNumberName":"U-component_of_CURRENTS"},"data":[0,0,0,0.024,0.0242,0.0374,0.0375,0.0444,0.0444,0,0,0,0,0,0,0,0,0,0,0,0.0188,0.0188,0.0239,0.0242,0.0374,0.0375,0.0444,0.0444,0,0,0,0,0,0,0,0,0,0,0,0.0188,0.0188,0.0188,0.0242,0.0374,0.0375,0.0444,0.0374,0,0,0,0,0,0,0,0,0,0,0.026,0.0217,0.0188,0.0188,0.0243,0.0374,0.0375,0.0372,0.0379,0.0349,0,0.0355,0,0.0392,0.0445,0.0445,0,0,0,0.0263,0.0212,0.0246,0.0188,0.0244,0.0374,0.032,0.0377,0.0384,0.0357,0.0357,0.036,0.0393,0.0445,0.0445,0.0449,0.0449,0,0,0.0255,0.0216,0.0241,0.025,0.0257,0.0316,0.0324,0.0382,0.0378,0.0357,0.0363,0.0394,0.0445,0.0445,0.0449,0.0449,0,0,0,0.022,0.021,0.0247,0.0246,0.0273,0.0319,0.0329,0.0376,0.0387,0.0364,0.0395,0.0445,0.0445,0.0449,0.0449,0.034,0,0,0,0.0217,0.0189,0.0243,0.0222,0.0272,0.0339,0.032,0.0383,0.0392,0.0395,0.0445,0.0445,0.0449,0.0449,0.0343,0.0329,0,0,0,0.0186,0.0186,0.0195,0.0219,0.0268,0.0339,0.0356,0.0387,0.0409,0.0445,0.0445,0.0449,0.0449,0.0345,0.0333,0.0347,0,0,0,0.0152,0.0139,0.0194,0.0179,0.0267,0.0315,0.0357,0.0412,0.0443,0.0445,0.0449,0.0449,0.0346,0.0336,0.0349,0.0323,0,0,0,0.0114,0.0133,0.0122,0.0174,0.0185,0.0299,0.0304,0.0373,0.0429,0.0426,0.0427,0.0342,0.0334,0.0347,0.0323,0,0,0,0,0.0096,0.0094,0.0108,0.0123,0.0177,0.0225,0.0311,0.0342,0.0378,0.0444,0.0372,0.0372,0.0383,0.0375,0.0448,0.0448,0.0448,0.0448,0.0448,0.0013,0.0035,0.0027,0.0067,0.0088,0.0177,0.0212,0.0272,0.0319,0.033,0.0303,0.0272,0.0258,0.0311,0.0311,0.031,0.031,0.031,0.0309,-0.003,-0.004,-0.0023,-0.0017,0.0014,0.0024,0.009,0.0139,0.0197,0.024,0.0256,0.0285,0.0299,0.0301,0.0303,0.0304,0.0305,0.0305,0.0306,-0.0072,-0.0076,-0.0064,-0.0064,-0.0084,-0.0048,-0.0041,0.0033,0.0113,0.0131,0.0191,0.0236,0.0225,0.0158,0.0158,0.0158,0.0158,0.0158,0.0158,-0.0123,-0.011,-0.0105,-0.0101,-0.0118,-0.0133,-0.008,-0.0043,0.0049,0.0108,0.0138,0.0224,0.0228,0.022,0.0157,0.0157,0.0157,0.0157,0.0157,-0.0178,-0.0149,-0.0148,-0.0147,-0.0162,-0.0168,-0.0139,-0.0065,0.0001,0.0055,0.0105,0.0107,0.0165,0.0172,0.0164,0.0082,0.0081,0.0081,0,-0.0215,-0.0197,-0.0199,-0.0196,-0.02,-0.0192,-0.0148,-0.0103,-0.0003,0.0004,0.0016,0.0069,0.0073,0.0135,0.0141,0.0129,0,0,0,-0.0247,-0.0243,-0.0258,-0.0229,-0.0227,-0.0174,-0.0142,-0.011,-0.0023,0.0006,0.0067,0.0071,0.0075,0.0156,0.0253,0.0259,0.0252,0,0]},{"header":{"parameterUnit":"m.s-1","parameterCategory":2,"la1":30.2992,"la2":30.254,"lo1":-89.0895,"lo2":-89.0443,"dy":0.0025,"dx":0.0025,"nx":19,"ny":19,"refTime":"2026-04-30T21:00:00:Z","depth":"4","parameterNumber":3,"parameterNumberName":"V-component_of_CURRENTS"},"data":[0,0,0,0.019,0.0191,0.0226,0.0226,0.0277,0.0277,0,0,0,0,0,0,0,0,0,0,0,0.0173,0.0173,0.019,0.0191,0.0226,0.0226,0.0277,0.0277,0,0,0,0,0,0,0,0,0,0,0,0.0173,0.0173,0.0173,0.0191,0.0226,0.0226,0.0277,0.0252,0,0,0,0,0,0,0,0,0,0,0.0218,0.0197,0.0173,0.0173,0.0191,0.0226,0.0226,0.0251,0.0253,0.0258,0,0.0251,0,0.0262,0.028,0.028,0,0,0,0.0203,0.0194,0.0202,0.0172,0.0191,0.0226,0.0214,0.0252,0.0255,0.0262,0.0251,0.0254,0.0262,0.028,0.028,0.0238,0.0237,0,0,0.0201,0.0186,0.02,0.0203,0.0183,0.0212,0.0215,0.0254,0.0251,0.0252,0.0255,0.0263,0.028,0.028,0.0239,0.0238,0,0,0,0.0187,0.0184,0.0191,0.0201,0.0205,0.0213,0.0216,0.025,0.0251,0.0255,0.0264,0.028,0.0281,0.0239,0.0238,0.0193,0,0,0,0.0187,0.0175,0.019,0.0182,0.0204,0.0227,0.021,0.0248,0.0253,0.0264,0.028,0.0281,0.024,0.0239,0.0195,0.0227,0,0,0,0.0174,0.0175,0.0173,0.0181,0.0191,0.0227,0.0231,0.025,0.0257,0.028,0.0281,0.0241,0.0239,0.0198,0.023,0.0259,0,0,0,0.0167,0.0131,0.0172,0.0136,0.0191,0.016,0.0231,0.0219,0.0228,0.028,0.024,0.0238,0.0199,0.0231,0.026,0.0278,0,0,0,0.0113,0.0125,0.0103,0.0139,0.0106,0.0158,0.0128,0.0175,0.0207,0.0232,0.0231,0.0195,0.023,0.0259,0.0175,0,0,0,0,0.008,0.0064,0.0058,0.0055,0.0055,0.0098,0.0117,0.0124,0.015,0.0203,0.0172,0.0197,0.0217,0.0227,0.023,0.023,0.023,0.0231,0.0231,-0.001,0.0005,-0.0028,-0.0004,-0.0004,0.0035,0.0052,0.0073,0.0085,0.0079,0.014,0.0112,0.0113,0.0092,0.0092,0.0091,0.0091,0.0091,0.0091,-0.0089,-0.0102,-0.0068,-0.0094,-0.0036,-0.0047,0.0007,0.0027,0.0063,0.0069,0.0089,0.0152,0.0086,0.0087,0.0088,0.0088,0.0088,0.0089,0.0089,-0.014,-0.0142,-0.015,-0.0147,-0.012,-0.0066,-0.0023,0.0013,0.0051,0.0074,0.0129,0.0111,0.0141,0.0093,0.0094,0.0094,0.0094,0.0094,0.0094,-0.0185,-0.0189,-0.0201,-0.0188,-0.0176,-0.0125,-0.0031,0.0006,0.0069,0.0121,0.0096,0.0115,0.0115,0.0143,0.0098,0.0097,0.0097,0.0096,0.0096,-0.0247,-0.0228,-0.025,-0.0245,-0.0199,-0.015,-0.0074,0.0052,0.0113,0.0174,0.0143,0.014,0.0183,0.0182,0.0215,0.0189,0.0189,0.019,0,-0.0272,-0.0268,-0.0282,-0.0268,-0.0218,-0.0153,-0.0039,0.004,0.0118,0.0118,0.0097,0.0055,0.0055,0.0094,0.0094,0.0126,0,0,0,-0.0301,-0.03,-0.0315,-0.0289,-0.0228,-0.0085,-0.0003,0.0044,0.0106,0.0179,0.0193,0.0192,0.0094,0.0108,0.0168,0.0168,0.0218,0,0]}]]